TimeAKST,TemperatureF,Dew PointF,Humidity,Sea Level PressureIn,VisibilityMPH,Wind Direction,Wind SpeedMPH,Gust SpeedMPH,PrecipitationIn,Events,Conditions,WindDirDegrees,DateUTC
12:53 AM,-27.9,-33.0,77,30.25,10.0,SSW,3.5,-,N/A,,Clear,200,2012-12-07 09:53:00
1:53 AM,-27.9,-34.1,73,30.25,10.0,SW,3.5,-,N/A,,Clear,220,2012-12-07 10:53:00
2:53 AM,-31.0,-9999,N/A,30.26,10.0,Calm,Calm,-,N/A,,Clear,0,2012-12-07 11:53:00
3:53 AM,-29.9,-9999,N/A,30.25,10.0,Calm,Calm,-,N/A,,Clear,0,2012-12-07 12:53:00
4:53 AM,-29.0,-36.9,66,30.26,10.0,Calm,Calm,-,N/A,,Clear,0,2012-12-07 13:53:00
5:53 AM,-27.9,-34.1,73,30.27,10.0,South,3.5,-,N/A,,Clear,170,2012-12-07 14:53:00
6:53 AM,-29.0,-36.0,69,30.27,10.0,Calm,Calm,-,N/A,,Partly Cloudy,0,2012-12-07 15:53:00
7:53 AM,-29.0,-34.1,77,30.27,10.0,South,3.5,-,N/A,,Partly Cloudy,170,2012-12-07 16:53:00
8:53 AM,-29.0,-34.1,77,30.27,10.0,South,3.5,-,N/A,,Scattered Clouds,170,2012-12-07 17:53:00
9:53 AM,-27.9,-33.0,77,30.27,10.0,Calm,Calm,-,N/A,,Partly Cloudy,0,2012-12-07 18:53:00
10:53 AM,-29.9,-9999,N/A,30.29,10.0,Calm,Calm,-,N/A,,Partly Cloudy,0,2012-12-07 19:53:00
11:53 AM,-27.9,-33.0,77,30.29,10.0,Calm,Calm,-,N/A,,Partly Cloudy,0,2012-12-07 20:53:00
12:53 PM,-23.1,-29.0,74,30.28,10.0,Calm,Calm,-,N/A,,Partly Cloudy,0,2012-12-07 21:53:00
1:53 PM,-23.1,-27.9,78,30.28,10.0,West,3.5,-,N/A,,Partly Cloudy,270,2012-12-07 22:53:00
2:53 PM,-25.1,-29.0,82,30.28,10.0,Calm,Calm,-,N/A,,Partly Cloudy,0,2012-12-07 23:53:00
3:53 PM,-24.0,-27.9,82,30.27,10.0,Calm,Calm,-,N/A,,Partly Cloudy,0,2012-12-08 00:53:00
4:53 PM,-24.0,-29.9,74,30.27,10.0,SSW,3.5,-,N/A,,Partly Cloudy,200,2012-12-08 01:53:00
5:53 PM,-24.0,-29.9,74,30.26,10.0,Calm,Calm,-,N/A,,Partly Cloudy,0,2012-12-08 02:53:00
6:53 PM,-9.0,-15.0,75,30.21,10.0,ESE,17.3,-,N/A,,Partly Cloudy,110,2012-12-08 03:53:00
7:53 PM,-8.0,-15.0,71,30.22,10.0,ESE,17.3,-,N/A,,Partly Cloudy,110,2012-12-08 04:53:00
8:53 PM,-7.1,-15.0,68,30.22,10.0,ESE,26.5,29.9,N/A,,Partly Cloudy,110,2012-12-08 05:53:00
9:53 PM,-7.1,-15.0,68,30.21,10.0,ESE,21.9,29.9,N/A,,Clear,110,2012-12-08 06:53:00
10:53 PM,-7.1,-15.0,68,30.22,10.0,ESE,19.6,-,N/A,,Clear,110,2012-12-08 07:53:00
11:53 PM,-7.1,-15.0,68,30.23,10.0,ESE,21.9,32.2,N/A,,Clear,110,2012-12-08 08:53:00